Location: Tamazert
(32.6352°N, 5.2072°W)
Time: 21:58:59
(UTC+00:00)

Cosmos 1455 Rocket - Pass Details

Date: 22 May 2022
Orbit: 604 x 629 km, 82.5° (Epoch: 24 June)

Event Time Altitude Azimuth Distance (km) Brightness Sun altitude
Rises 02:30:09 0° 351° (N) 2,921 7.1 -28.2°
Reaches altitude 10° 02:32:24 10° 350° (N) 2,009 6.2 -28.0°
Enters shadow 02:35:22 41° 342° (NNW) 907 4.0 -27.6°
